Tracking 18844 objects as of 21-Nov-2017
HD Live streaming from Space Station
objects crossing your sky now

FENGYUN 1C DEB

Track FENGYUN 1C DEB now!
10-day predictions


NORAD ID: 30068
Int'l Code: 1999-025PV
Perigee: 724.6 km
Apogee: 1,006.8 km
Inclination: 98.8 °
Period: 102.1 minutes
Semi major axis: 7236 km
RCS: 0.0703 m2 (small)
Launch date: May 10, 1999
Source: People's Republic of China (PRC)
Launch site: Taiyaun Space Center, China (TSC)

Note: This is SATELLITE DEBRIS
aabbcc
Your satellite tracking list
Your tracking list is empty




NASA's NSSDC Master Catalog

Two Line Element Set (TLE):
1 30068U 99025PV  17324.89416815 +.00000058 +00000-0 +47506-4 0  9990
2 30068 098.8143 355.1240 0195013 064.3535 297.7639 14.10240432558379
Source of the keplerian elements: AFSPC